Date,TemperatureHighF,TemperatureAvgF,TemperatureLowF,DewpointHighF,DewpointAvgF,DewpointLowF,HumidityHigh,HumidityAvg,HumidityLow,PressureMaxIn,PressureMinIn,WindSpeedMaxMPH,WindSpeedAvgMPH,GustSpeedMaxMPH,PrecipitationSumIn
2013-8-1,99.2,87.5,76.0,78.0,75.2,72.0,91,69,42,30.00,29.85,6,2,16,0.00
2013-8-2,98.5,87.2,75.7,77.0,74.1,69.0,94,68,39,29.95,29.86,7,1,11,0.00
2013-8-3,97.0,86.8,75.6,77.0,74.5,71.0,95,69,45,30.01,29.93,8,2,12,0.00
2013-8-4,97.5,87.0,76.3,79.0,75.7,72.0,95,71,48,30.07,29.91,6,1,10,0.00
2013-8-5,100.5,86.9,76.1,77.0,73.8,68.0,94,68,35,30.01,29.85,9,2,13,0.00
2013-8-6,101.1,88.3,76.1,78.0,74.5,70.0,93,67,37,29.94,29.80,12,3,15,0.00
2013-8-7,102.0,89.3,76.5,77.0,73.8,66.0,95,64,31,29.92,29.77,8,2,13,0.00
2013-8-8,100.7,87.1,75.3,76.0,73.0,68.0,94,67,35,29.91,29.79,10,2,11,0.00
2013-8-9,99.0,86.6,73.0,77.0,74.2,71.0,96,69,42,29.94,29.82,9,1,10,0.00
2013-8-10,99.4,84.8,76.0,80.0,75.5,72.0,92,75,46,30.02,29.91,5,1,13,0.00
2013-8-11,97.3,83.4,72.1,79.0,73.6,70.0,96,74,43,30.05,29.95,8,1,13,0.00
2013-8-12,99.3,85.8,74.5,79.0,73.7,71.0,96,70,41,30.05,29.90,6,2,13,0.02
2013-8-13,100.9,88.1,76.9,78.0,74.3,70.0,93,67,38,30.00,29.84,6,2,13,0.00
2013-8-14,92.7,81.9,76.7,77.0,75.5,73.0,91,81,58,29.97,29.87,10,2,15,0.04
2013-8-15,90.5,80.1,70.7,75.0,68.0,63.0,94,68,44,30.01,29.88,5,1,11,0.00
2013-8-16,93.3,81.0,69.2,70.0,66.3,64.0,86,63,41,29.99,29.88,7,2,13,0.00
2013-8-17,91.1,79.6,69.2,67.0,63.4,60.0,84,60,36,30.00,29.89,7,2,13,0.00
2013-8-18,93.5,81.3,69.4,73.0,67.2,64.0,94,65,40,30.01,29.92,8,1,12,0.00
2013-8-19,94.6,81.6,69.0,72.0,65.5,59.0,90,61,33,30.03,29.89,6,1,9,0.00
2013-8-20,96.6,82.6,69.0,74.0,67.6,59.0,92,64,30,30.01,29.91,8,1,14,0.00
2013-8-21,97.7,83.6,71.9,77.0,69.8,64.0,95,67,35,30.07,29.94,7,1,12,0.00
2013-8-22,97.1,85.2,73.5,77.0,71.9,69.0,92,66,41,30.06,29.90,8,1,13,0.00
2013-8-23,99.4,86.3,73.4,77.0,72.1,70.0,92,65,39,29.99,29.84,4,1,12,0.00
2013-8-24,98.9,87.0,75.8,77.0,72.1,68.0,93,64,37,30.02,29.92,10,2,16,0.00
2013-8-25,95.6,84.1,75.8,75.0,72.2,70.0,86,69,46,30.10,30.00,15,2,15,0.00
2013-8-26,90.2,78.9,72.2,76.0,72.9,70.0,94,82,56,30.13,30.05,8,2,16,0.17
2013-8-27,93.1,80.3,70.1,76.0,70.9,69.0,97,76,48,30.11,29.98,5,0,8,0.01
2013-8-28,98.3,85.5,74.0,74.0,70.1,67.0,90,63,37,30.05,29.92,4,0,9,0.00
2013-8-29,100.1,87.4,76.8,75.0,70.2,66.0,81,59,34,30.03,29.89,7,1,9,0.00
2013-8-30,97.9,86.9,76.2,78.0,73.3,70.0,94,67,41,29.98,29.83,7,2,12,0.00
2013-8-31,98.8,86.2,73.9,76.0,72.0,69.0,92,65,41,29.92,29.77,8,2,13,0.00